Regional Weather Roundup
Issued by NWS Green Bay, WI

Home | Current Version | Previous Version | Text Only | Print | Product List | Glossary On
Versions: 1 2 3 4 5 6 7 8 9 10 11 12 13 14 15 16 17 18 19 20 21 22 23 24 25 26 27 28 29 30 31 32 33 34 35 36 37 38 39 40 41 42 43 44 45 46 47 48 49 50
000
ASUS43 KGRB 260710
RWRGRB

NORTH-CENTRAL AND NORTHEAST WISCONSIN REGIONAL WEATHER ROUNDUP
NATIONAL WEATHER SERVICE GREEN BAY WI
100 AM CST MON JAN 26 2015

WIZ005-009-010>012-018-019-260800-
NORTH CENTRAL WISCONSIN

CITY           SKY/WX    TMP DP  RH WIND       PRES   REMARKS
IRONWOOD       CLOUDY    16   7  67 S8        29.86F WCI   5
MANITOWISH WTR CLOUDY     9   3  77 S5        29.89F WCI   1
ARBOR VITAE    PTCLDY    11   6  78 CALM      29.89F
EAGLE RIVER    PTCLDY     9   3  76 CALM      29.90F
LAND O LAKES   CLOUDY     8   4  84 CALM      29.90F
RHINELANDER    PTCLDY    10   3  73 S5        29.91F WCI   2
PHILLIPS       CLOUDY    10   5  81 S3        29.90F
ANTIGO         PTCLDY     7   2  82 S6        29.94F WCI  -3
TOMAHAWK       PTCLDY     8   3  81 CALM      29.93F
MERRILL        PTCLDY     9   5  84 CALM      29.95F
$$

WIZ013-073-260800-
NORTHEAST WISCONSIN

CITY           SKY/WX    TMP DP  RH WIND       PRES   REMARKS
IRON MOUNTAIN  PTCLDY    -2  -6  83 CALM      29.96F
MARINETTE      PTCLDY     5   3  92 NW3       30.01F
OCONTO         PTCLDY     8   6  93 CALM      30.02F
$$

WIZ017-030-035>037-045-260800-
CENTRAL WISCONSIN

CITY           SKY/WX    TMP DP  RH WIND       PRES   REMARKS
MEDFORD        MOCLDY    10   4  78 S7        29.93F WCI  -1
WAUSAU         PTCLDY    10   4  76 S7        29.95F WCI  -1
MOSINEE        PTCLDY    10   5  79 S6        29.97F WCI   1
MARSHFIELD     PTCLDY    12   5  73 S8        29.96F WCI   0
WISC RAPIDS    PTCLDY     9   4  80 S3        30.01F
STEVENS POINT  PTCLDY     6   2  85 CALM      29.99F
WAUPACA        PTCLDY    12   8  82 CALM      30.02F
SHAWANO        PTCLDY    10   7  86 CALM      30.01F
CLINTONVILLE   PTCLDY    10   7  85 CALM      30.01F
$$

WIZ038-039-048-051-260800-
FOX VALLEY

CITY           SKY/WX    TMP DP  RH WIND       PRES   REMARKS
NWS GREEN BAY  PTCLDY    12   8  84 CALM      30.02F
APPLETON       PTCLDY    14   5  67 N3        30.00F
OSHKOSH        PTCLDY    14   6  70 W5        30.01F WCI   6
FOND DU LAC    FLURRIES  13   7  77 NW5       30.02F WCI   5
$$

WIZ022-050-052-260800-
EAST CENTRAL WISCONSIN

CITY           SKY/WX    TMP DP  RH WIND       PRES   REMARKS
STURGEON BAY   CLEAR     10   7  85 CALM      30.03F
MANITOWOC      PTCLDY    14   9  80 CALM      30.02F
SHEBOYGAN        N/A     13   8  81 CALM      30.01F
$$

LMZ563-521-522-541>543-260800-
LAKESHORE

STATION/POSITION TIME  TEMP    WIND        PRES    VSBY  WAVE
                       AIR SEA DIR/SP/G                  HT/PER
                 (UTC) (F)     (DEG/KT/KT) (MB)    (MI)  (FT/S)
SHEBOYGAN LKSHOR 0700   23      80/  8/ 10 1017.6F
KEWAUNEE LKSHORE 0700   14     280/  3/  5 1015.9F
NORTHPORT PIER   0700   10     240/  1/  3 1016.9S
SISTER BAY LKSHO 0700    9        CALM       N/A
CHAMBERS ISLAND  0700    6        CALM     1016.9F
MENOMINEE LKSHOR 0700   11     280/  3/  3 1017.2F
$$


USA.gov is the U.S. government's official web portal to all federal, state and local government web resources and services.